contact:dominique.lefevre@mio.osupytheas.fr, maurice.libes@osupytheas.fr, didier.mallarino@osupytheas.fr
Project:EMSO http://www.emso-fr.org/EMSO-France
Depth: 2436.0 m
Title:EMSO Ligure Ouest : Data MII capteur MICROCAT
DateTime_Computer,Latitude,Longitude,Temperature,Conductivity,Pressure,DateTime_Instrument
DateTime_Computer,Latitude,Longitude,degC,S m-1,dbar,DateTime_Instrument
2023-10-07T00:00:39Z,42.805,6.029,13.3043,4.60115,2470.754,2023-10-07T02:03:03Z
2023-10-07T00:03:42Z,42.805,6.029,13.3048,4.60115,2470.763,2023-10-07T02:06:06Z
2023-10-07T00:06:45Z,42.805,6.029,13.3046,4.60114,2470.763,2023-10-07T02:09:09Z
2023-10-07T00:09:48Z,42.805,6.029,13.3052,4.60116,2470.74,2023-10-07T02:12:12Z
2023-10-07T00:12:51Z,42.805,6.029,13.3045,4.60115,2470.777,2023-10-07T02:15:15Z
2023-10-07T00:15:54Z,42.805,6.029,13.3048,4.60114,2470.763,2023-10-07T02:18:18Z
2023-10-07T00:18:57Z,42.805,6.029,13.3049,4.60109,2470.74,2023-10-07T02:21:21Z
2023-10-07T00:22:00Z,42.805,6.029,13.3048,4.60112,2470.74,2023-10-07T02:24:24Z
2023-10-07T00:25:03Z,42.805,6.029,13.3046,4.60115,2470.763,2023-10-07T02:27:27Z
2023-10-07T00:28:06Z,42.805,6.029,13.3043,4.60114,2470.777,2023-10-07T02:30:30Z
2023-10-07T00:31:10Z,42.805,6.029,13.3046,4.60107,2470.763,2023-10-07T02:33:33Z
2023-10-07T00:34:13Z,42.805,6.029,13.3043,4.60111,2470.777,2023-10-07T02:36:36Z
2023-10-07T00:37:16Z,42.805,6.029,13.3047,4.60110,2470.693,2023-10-07T02:39:40Z
2023-10-07T00:40:19Z,42.805,6.029,13.3047,4.60114,2470.777,2023-10-07T02:42:43Z
2023-10-07T00:43:22Z,42.805,6.029,13.3046,4.60106,2470.74,2023-10-07T02:45:46Z
2023-10-07T00:46:25Z,42.805,6.029,13.3046,4.60108,2470.777,2023-10-07T02:48:49Z
2023-10-07T00:49:28Z,42.805,6.029,13.3039,4.60112,2470.73,2023-10-07T02:51:52Z
2023-10-07T00:52:31Z,42.805,6.029,13.3043,4.60111,2470.717,2023-10-07T02:54:55Z
2023-10-07T00:55:34Z,42.805,6.029,13.3051,4.60111,2470.763,2023-10-07T02:57:58Z
2023-10-07T00:58:37Z,42.805,6.029,13.3041,4.60114,2470.763,2023-10-07T03:01:01Z
2023-10-07T01:01:40Z,42.805,6.029,13.3043,4.60110,2470.717,2023-10-07T03:04:04Z
2023-10-07T01:04:43Z,42.805,6.029,13.3046,4.60110,2470.74,2023-10-07T03:07:07Z
2023-10-07T01:07:46Z,42.805,6.029,13.3048,4.60114,2470.73,2023-10-07T03:10:10Z
2023-10-07T01:10:50Z,42.805,6.029,13.3051,4.60114,2470.74,2023-10-07T03:13:13Z
2023-10-07T01:13:53Z,42.805,6.029,13.3051,4.60110,2470.777,2023-10-07T03:16:16Z
2023-10-07T01:16:56Z,42.805,6.029,13.3048,4.60120,2470.74,2023-10-07T03:19:20Z
2023-10-07T01:19:59Z,42.805,6.029,13.3044,4.60108,2470.717,2023-10-07T03:22:23Z
2023-10-07T01:23:02Z,42.805,6.029,13.3048,4.60114,2470.73,2023-10-07T03:25:26Z
2023-10-07T01:26:05Z,42.805,6.029,13.3051,4.60107,2470.74,2023-10-07T03:28:29Z
2023-10-07T01:29:08Z,42.805,6.029,13.3054,4.60111,2470.74,2023-10-07T03:31:32Z
2023-10-07T01:32:11Z,42.805,6.029,13.3055,4.60112,2470.73,2023-10-07T03:34:35Z
2023-10-07T01:35:14Z,42.805,6.029,13.3042,4.60110,2470.754,2023-10-07T03:37:38Z
2023-10-07T01:38:17Z,42.805,6.029,13.3058,4.60113,2470.73,2023-10-07T03:40:41Z
2023-10-07T01:41:20Z,42.805,6.029,13.3054,4.60108,2470.74,2023-10-07T03:43:44Z
2023-10-07T01:44:23Z,42.805,6.029,13.3046,4.60116,2470.74,2023-10-07T03:46:47Z
2023-10-07T01:47:26Z,42.805,6.029,13.3038,4.60112,2470.763,2023-10-07T03:49:50Z
2023-10-07T01:50:29Z,42.805,6.029,13.3047,4.60117,2470.717,2023-10-07T03:52:53Z
2023-10-07T01:53:33Z,42.805,6.029,13.3046,4.60120,2470.73,2023-10-07T03:55:56Z
2023-10-07T01:56:36Z,42.805,6.029,13.3050,4.60113,2470.73,2023-10-07T03:58:59Z
2023-10-07T01:59:39Z,42.805,6.029,13.3048,4.60117,2470.74,2023-10-07T04:02:03Z
2023-10-07T02:02:42Z,42.805,6.029,13.3053,4.60115,2470.777,2023-10-07T04:05:06Z
2023-10-07T02:05:45Z,42.805,6.029,13.3048,4.60115,2470.717,2023-10-07T04:08:09Z
2023-10-07T02:08:48Z,42.805,6.029,13.3051,4.60113,2470.74,2023-10-07T04:11:12Z
2023-10-07T02:11:51Z,42.805,6.029,13.3054,4.60114,2470.74,2023-10-07T04:14:15Z
2023-10-07T02:14:54Z,42.805,6.029,13.3048,4.60114,2470.717,2023-10-07T04:17:18Z
2023-10-07T02:17:57Z,42.805,6.029,13.3046,4.60118,2470.693,2023-10-07T04:20:21Z
2023-10-07T02:21:00Z,42.805,6.029,13.3051,4.60116,2470.74,2023-10-07T04:23:24Z
2023-10-07T02:24:03Z,42.805,6.029,13.3052,4.60114,2470.717,2023-10-07T04:26:27Z
2023-10-07T02:27:06Z,42.805,6.029,13.3048,4.60111,2470.73,2023-10-07T04:29:30Z
2023-10-07T02:30:09Z,42.805,6.029,13.3048,4.60114,2470.73,2023-10-07T04:32:33Z
2023-10-07T02:33:13Z,42.805,6.029,13.3046,4.60114,2470.74,2023-10-07T04:35:36Z
2023-10-07T02:36:16Z,42.805,6.029,13.3046,4.60110,2470.717,2023-10-07T04:38:39Z
2023-10-07T02:39:19Z,42.805,6.029,13.3047,4.60108,2470.717,2023-10-07T04:41:43Z
2023-10-07T02:42:22Z,42.805,6.029,13.3042,4.60119,2470.74,2023-10-07T04:44:46Z
2023-10-07T02:45:25Z,42.805,6.029,13.3046,4.60119,2470.703,2023-10-07T04:47:49Z
2023-10-07T02:48:28Z,42.805,6.029,13.3047,4.60111,2470.717,2023-10-07T04:50:52Z
2023-10-07T02:51:31Z,42.805,6.029,13.3054,4.60117,2470.717,2023-10-07T04:53:55Z
2023-10-07T02:54:34Z,42.805,6.029,13.3053,4.60130,2470.73,2023-10-07T04:56:58Z
2023-10-07T02:57:37Z,42.805,6.029,13.3045,4.60116,2470.74,2023-10-07T05:00:01Z
2023-10-07T03:00:40Z,42.805,6.029,13.3045,4.60114,2470.717,2023-10-07T05:03:04Z
2023-10-07T03:03:43Z,42.805,6.029,13.3054,4.60115,2470.717,2023-10-07T05:06:07Z
2023-10-07T03:06:46Z,42.805,6.029,13.3043,4.60102,2470.693,2023-10-07T05:09:10Z
2023-10-07T03:09:49Z,42.805,6.029,13.3043,4.60113,2470.754,2023-10-07T05:12:13Z
2023-10-07T03:12:53Z,42.805,6.029,13.3046,4.60110,2470.707,2023-10-07T05:15:16Z
2023-10-07T03:15:56Z,42.805,6.029,13.3057,4.60112,2470.73,2023-10-07T05:18:19Z
2023-10-07T03:18:59Z,42.805,6.029,13.3051,4.60109,2470.754,2023-10-07T05:21:23Z
2023-10-07T03:22:02Z,42.805,6.029,13.3046,4.60116,2470.74,2023-10-07T05:24:26Z
2023-10-07T03:25:05Z,42.805,6.029,13.3046,4.60108,2470.73,2023-10-07T05:27:29Z
2023-10-07T03:28:08Z,42.805,6.029,13.3048,4.60111,2470.74,2023-10-07T05:30:32Z
2023-10-07T03:31:11Z,42.805,6.029,13.3059,4.60110,2470.707,2023-10-07T05:33:35Z
2023-10-07T03:34:14Z,42.805,6.029,13.3047,4.60111,2470.74,2023-10-07T05:36:38Z
2023-10-07T03:37:17Z,42.805,6.029,13.3045,4.60121,2470.73,2023-10-07T05:39:41Z
2023-10-07T03:40:20Z,42.805,6.029,13.3043,4.60112,2470.74,2023-10-07T05:42:44Z
2023-10-07T03:43:23Z,42.805,6.029,13.3043,4.60114,2470.693,2023-10-07T05:45:47Z
2023-10-07T03:46:26Z,42.805,6.029,13.3044,4.60113,2470.73,2023-10-07T05:48:50Z
2023-10-07T03:49:29Z,42.805,6.029,13.3048,4.60111,2470.707,2023-10-07T05:51:53Z
2023-10-07T03:52:33Z,42.805,6.029,13.3053,4.60114,2470.717,2023-10-07T05:54:56Z
2023-10-07T03:55:36Z,42.805,6.029,13.3052,4.60107,2470.717,2023-10-07T05:57:59Z
2023-10-07T03:58:39Z,42.805,6.029,13.3048,4.60117,2470.717,2023-10-07T06:01:03Z
2023-10-07T04:01:42Z,42.805,6.029,13.3048,4.60115,2470.717,2023-10-07T06:04:06Z
2023-10-07T04:04:45Z,42.805,6.029,13.3056,4.60118,2470.717,2023-10-07T06:07:09Z
2023-10-07T04:07:48Z,42.805,6.029,13.3054,4.60116,2470.717,2023-10-07T06:10:12Z
2023-10-07T04:10:51Z,42.805,6.029,13.3045,4.60112,2470.717,2023-10-07T06:13:15Z
2023-10-07T04:13:54Z,42.805,6.029,13.3051,4.60112,2470.693,2023-10-07T06:16:18Z
2023-10-07T04:16:57Z,42.805,6.029,13.3052,4.60122,2470.717,2023-10-07T06:19:21Z
2023-10-07T04:20:00Z,42.805,6.029,13.3056,4.60107,2470.74,2023-10-07T06:22:24Z
2023-10-07T04:23:03Z,42.805,6.029,13.3054,4.60125,2470.73,2023-10-07T06:25:27Z
2023-10-07T04:26:06Z,42.805,6.029,13.3046,4.60117,2470.717,2023-10-07T06:28:30Z
2023-10-07T04:29:09Z,42.805,6.029,13.3049,4.60117,2470.717,2023-10-07T06:31:33Z
2023-10-07T04:32:13Z,42.805,6.029,13.3052,4.60114,2470.717,2023-10-07T06:34:37Z
2023-10-07T04:35:16Z,42.805,6.029,13.3046,4.60114,2470.707,2023-10-07T06:37:40Z
2023-10-07T04:38:19Z,42.805,6.029,13.3051,4.60106,2470.717,2023-10-07T06:40:43Z
2023-10-07T04:41:22Z,42.805,6.029,13.3047,4.60109,2470.67,2023-10-07T06:43:46Z
2023-10-07T04:44:25Z,42.805,6.029,13.3045,4.60116,2470.693,2023-10-07T06:46:49Z
2023-10-07T04:47:28Z,42.805,6.029,13.3053,4.60114,2470.693,2023-10-07T06:49:52Z
2023-10-07T04:50:32Z,42.805,6.029,13.3055,4.60108,2470.73,2023-10-07T06:52:55Z
2023-10-07T04:53:35Z,42.805,6.029,13.3051,4.60115,2470.707,2023-10-07T06:55:58Z
2023-10-07T04:56:38Z,42.805,6.029,13.3057,4.60121,2470.74,2023-10-07T06:59:02Z
2023-10-07T04:59:41Z,42.805,6.029,13.3051,4.60121,2470.707,2023-10-07T07:02:05Z
2023-10-07T05:02:44Z,42.805,6.029,13.3058,4.60125,2470.73,2023-10-07T07:05:08Z
2023-10-07T05:05:47Z,42.805,6.029,13.3058,4.60115,2470.67,2023-10-07T07:08:11Z
2023-10-07T05:08:50Z,42.805,6.029,13.3053,4.60120,2470.74,2023-10-07T07:11:14Z
2023-10-07T05:11:53Z,42.805,6.029,13.3048,4.60115,2470.67,2023-10-07T07:14:17Z
2023-10-07T05:14:56Z,42.805,6.029,13.3051,4.60119,2470.74,2023-10-07T07:17:20Z
2023-10-07T05:17:59Z,42.805,6.029,13.3059,4.60116,2470.693,2023-10-07T07:20:23Z
2023-10-07T05:21:02Z,42.805,6.029,13.3046,4.60109,2470.707,2023-10-07T07:23:26Z
2023-10-07T05:24:05Z,42.805,6.029,13.3048,4.60113,2470.707,2023-10-07T07:26:29Z
2023-10-07T05:27:08Z,42.805,6.029,13.3051,4.60111,2470.693,2023-10-07T07:29:32Z
2023-10-07T05:30:11Z,42.805,6.029,13.3043,4.60116,2470.693,2023-10-07T07:32:35Z
2023-10-07T05:33:15Z,42.805,6.029,13.3051,4.60112,2470.67,2023-10-07T07:35:38Z
2023-10-07T05:36:18Z,42.805,6.029,13.3058,4.60112,2470.693,2023-10-07T07:38:42Z
2023-10-07T05:39:21Z,42.805,6.029,13.3052,4.60115,2470.73,2023-10-07T07:41:45Z
2023-10-07T05:42:24Z,42.805,6.029,13.3047,4.60125,2470.693,2023-10-07T07:44:48Z
2023-10-07T05:45:27Z,42.805,6.029,13.3054,4.60117,2470.693,2023-10-07T07:47:51Z
2023-10-07T05:48:30Z,42.805,6.029,13.3051,4.60110,2470.717,2023-10-07T07:50:54Z
2023-10-07T05:51:33Z,42.805,6.029,13.3048,4.60119,2470.707,2023-10-07T07:53:57Z
2023-10-07T05:54:36Z,42.805,6.029,13.3056,4.60112,2470.707,2023-10-07T07:57:00Z
2023-10-07T05:57:39Z,42.805,6.029,13.3055,4.60120,2470.73,2023-10-07T08:00:03Z
2023-10-07T06:00:42Z,42.805,6.029,13.3051,4.60112,2470.707,2023-10-07T08:03:06Z
2023-10-07T06:03:45Z,42.805,6.029,13.3050,4.60112,2470.717,2023-10-07T08:06:09Z
2023-10-07T06:06:48Z,42.805,6.029,13.3043,4.60122,2470.684,2023-10-07T08:09:12Z
2023-10-07T06:09:51Z,42.805,6.029,13.3051,4.60115,2470.693,2023-10-07T08:12:15Z
2023-10-07T06:12:55Z,42.805,6.029,13.3048,4.60114,2470.693,2023-10-07T08:15:18Z
2023-10-07T06:15:58Z,42.805,6.029,13.3049,4.60115,2470.693,2023-10-07T08:18:21Z
2023-10-07T06:19:01Z,42.805,6.029,13.3051,4.60119,2470.717,2023-10-07T08:21:25Z
2023-10-07T06:22:04Z,42.805,6.029,13.3059,4.60117,2470.73,2023-10-07T08:24:28Z
2023-10-07T06:25:07Z,42.805,6.029,13.3048,4.60119,2470.74,2023-10-07T08:27:31Z
2023-10-07T06:28:10Z,42.805,6.029,13.3049,4.60112,2470.73,2023-10-07T08:30:34Z
2023-10-07T06:31:13Z,42.805,6.029,13.3044,4.60118,2470.717,2023-10-07T08:33:37Z
2023-10-07T06:34:16Z,42.805,6.029,13.3048,4.60112,2470.693,2023-10-07T08:36:40Z
2023-10-07T06:37:19Z,42.805,6.029,13.3053,4.60112,2470.67,2023-10-07T08:39:43Z
2023-10-07T06:40:22Z,42.805,6.029,13.3046,4.60119,2470.703,2023-10-07T08:42:46Z
2023-10-07T06:43:25Z,42.805,6.029,13.3049,4.60111,2470.693,2023-10-07T08:45:49Z
2023-10-07T06:46:28Z,42.805,6.029,13.3048,4.60112,2470.717,2023-10-07T08:48:52Z
2023-10-07T06:49:31Z,42.805,6.029,13.3041,4.60117,2470.707,2023-10-07T08:51:55Z
2023-10-07T06:52:35Z,42.805,6.029,13.3048,4.60113,2470.73,2023-10-07T08:54:58Z
2023-10-07T06:55:38Z,42.805,6.029,13.3051,4.60117,2470.707,2023-10-07T08:58:01Z
2023-10-07T06:58:41Z,42.805,6.029,13.3045,4.60109,2470.707,2023-10-07T09:01:05Z
2023-10-07T07:01:44Z,42.805,6.029,13.3047,4.60117,2470.693,2023-10-07T09:04:08Z
2023-10-07T07:04:47Z,42.805,6.029,13.3051,4.60121,2470.693,2023-10-07T09:07:11Z
2023-10-07T07:07:50Z,42.805,6.029,13.3044,4.60121,2470.73,2023-10-07T09:10:14Z
2023-10-07T07:10:53Z,42.805,6.029,13.3048,4.60114,2470.74,2023-10-07T09:13:17Z
2023-10-07T07:13:56Z,42.805,6.029,13.3054,4.60105,2470.693,2023-10-07T09:16:20Z
2023-10-07T07:16:59Z,42.805,6.029,13.3044,4.60114,2470.707,2023-10-07T09:19:23Z
2023-10-07T07:20:02Z,42.805,6.029,13.3045,4.60120,2470.73,2023-10-07T09:22:26Z
2023-10-07T07:23:05Z,42.805,6.029,13.3052,4.60113,2470.754,2023-10-07T09:25:29Z
2023-10-07T07:26:08Z,42.805,6.029,13.3049,4.60114,2470.73,2023-10-07T09:28:32Z
2023-10-07T07:29:11Z,42.805,6.029,13.3048,4.60119,2470.73,2023-10-07T09:31:35Z
2023-10-07T07:32:14Z,42.805,6.029,13.3052,4.60114,2470.693,2023-10-07T09:34:38Z
2023-10-07T07:35:18Z,42.805,6.029,13.3047,4.60114,2470.693,2023-10-07T09:37:41Z
2023-10-07T07:38:21Z,42.805,6.029,13.3052,4.60108,2470.693,2023-10-07T09:40:44Z
2023-10-07T07:41:24Z,42.805,6.029,13.3045,4.60115,2470.717,2023-10-07T09:43:48Z
2023-10-07T07:44:27Z,42.805,6.029,13.3053,4.60118,2470.73,2023-10-07T09:46:51Z
2023-10-07T07:47:30Z,42.805,6.029,13.3051,4.60114,2470.707,2023-10-07T09:49:54Z
2023-10-07T07:50:33Z,42.805,6.029,13.3054,4.60117,2470.67,2023-10-07T09:52:57Z
2023-10-07T07:53:36Z,42.805,6.029,13.3052,4.60114,2470.693,2023-10-07T09:56:00Z
2023-10-07T07:56:39Z,42.805,6.029,13.3056,4.60125,2470.717,2023-10-07T09:59:03Z
2023-10-07T07:59:42Z,42.805,6.029,13.3050,4.60106,2470.693,2023-10-07T10:02:06Z
2023-10-07T08:02:45Z,42.805,6.029,13.3043,4.60116,2470.693,2023-10-07T10:05:09Z
2023-10-07T08:05:48Z,42.805,6.029,13.3048,4.60111,2470.707,2023-10-07T10:08:12Z
2023-10-07T08:08:51Z,42.805,6.029,13.3053,4.60117,2470.693,2023-10-07T10:11:15Z
2023-10-07T08:11:54Z,42.805,6.029,13.3049,4.60114,2470.717,2023-10-07T10:14:18Z
2023-10-07T08:14:58Z,42.805,6.029,13.3051,4.60118,2470.754,2023-10-07T10:17:21Z
2023-10-07T08:18:01Z,42.805,6.029,13.3046,4.60113,2470.73,2023-10-07T10:20:24Z
2023-10-07T08:21:04Z,42.805,6.029,13.3048,4.60112,2470.74,2023-10-07T10:23:28Z
2023-10-07T08:24:07Z,42.805,6.029,13.3043,4.60115,2470.73,2023-10-07T10:26:31Z
2023-10-07T08:27:10Z,42.805,6.029,13.3047,4.60112,2470.73,2023-10-07T10:29:34Z
2023-10-07T08:30:13Z,42.805,6.029,13.3049,4.60117,2470.717,2023-10-07T10:32:37Z
2023-10-07T08:33:16Z,42.805,6.029,13.3048,4.60114,2470.73,2023-10-07T10:35:40Z
2023-10-07T08:36:19Z,42.805,6.029,13.3048,4.60111,2470.717,2023-10-07T10:38:43Z
2023-10-07T08:39:22Z,42.805,6.029,13.3045,4.60112,2470.73,2023-10-07T10:41:46Z
2023-10-07T08:42:25Z,42.805,6.029,13.3051,4.60109,2470.693,2023-10-07T10:44:49Z
2023-10-07T08:45:28Z,42.805,6.029,13.3043,4.60113,2470.726,2023-10-07T10:47:52Z
2023-10-07T08:48:31Z,42.805,6.029,13.3045,4.60112,2470.74,2023-10-07T10:50:55Z
2023-10-07T08:51:35Z,42.805,6.029,13.3046,4.60112,2470.693,2023-10-07T10:53:58Z
2023-10-07T08:54:38Z,42.805,6.029,13.3046,4.60112,2470.74,2023-10-07T10:57:01Z
2023-10-07T08:57:41Z,42.805,6.029,13.3051,4.60113,2470.754,2023-10-07T11:00:05Z
2023-10-07T09:00:44Z,42.805,6.029,13.3051,4.60112,2470.73,2023-10-07T11:03:08Z
2023-10-07T09:03:47Z,42.805,6.029,13.3051,4.60111,2470.763,2023-10-07T11:06:11Z
2023-10-07T09:06:50Z,42.805,6.029,13.3045,4.60110,2470.754,2023-10-07T11:09:14Z
2023-10-07T09:09:53Z,42.805,6.029,13.3047,4.60110,2470.74,2023-10-07T11:12:17Z
2023-10-07T09:12:56Z,42.805,6.029,13.3057,4.60117,2470.74,2023-10-07T11:15:20Z
2023-10-07T09:15:59Z,42.805,6.029,13.3040,4.60112,2470.754,2023-10-07T11:18:23Z
2023-10-07T09:19:02Z,42.805,6.029,13.3048,4.60115,2470.73,2023-10-07T11:21:26Z
2023-10-07T09:22:05Z,42.805,6.029,13.3055,4.60112,2470.717,2023-10-07T11:24:29Z
2023-10-07T09:25:08Z,42.805,6.029,13.3046,4.60114,2470.74,2023-10-07T11:27:32Z
2023-10-07T09:28:12Z,42.805,6.029,13.3043,4.60120,2470.763,2023-10-07T11:30:35Z
2023-10-07T09:31:15Z,42.805,6.029,13.3051,4.60114,2470.777,2023-10-07T11:33:38Z
2023-10-07T09:34:18Z,42.805,6.029,13.3046,4.60116,2470.73,2023-10-07T11:36:42Z
2023-10-07T09:37:21Z,42.805,6.029,13.3052,4.60113,2470.74,2023-10-07T11:39:45Z
2023-10-07T09:40:24Z,42.805,6.029,13.3046,4.60113,2470.74,2023-10-07T11:42:48Z
2023-10-07T09:43:27Z,42.805,6.029,13.3047,4.60113,2470.717,2023-10-07T11:45:51Z
2023-10-07T09:46:30Z,42.805,6.029,13.3046,4.60115,2470.777,2023-10-07T11:48:54Z
2023-10-07T09:49:33Z,42.805,6.029,13.3049,4.60109,2470.74,2023-10-07T11:51:57Z
2023-10-07T09:52:36Z,42.805,6.029,13.3055,4.60112,2470.74,2023-10-07T11:55:00Z
2023-10-07T09:55:39Z,42.805,6.029,13.3055,4.60114,2470.754,2023-10-07T11:58:03Z
2023-10-07T09:58:42Z,42.805,6.029,13.3048,4.60121,2470.754,2023-10-07T12:01:06Z
2023-10-07T10:01:45Z,42.805,6.029,13.3052,4.60113,2470.787,2023-10-07T12:04:09Z
2023-10-07T10:04:48Z,42.805,6.029,13.3046,4.60114,2470.777,2023-10-07T12:07:12Z
2023-10-07T10:07:52Z,42.805,6.029,13.3054,4.60106,2470.777,2023-10-07T12:10:15Z
2023-10-07T10:10:55Z,42.805,6.029,13.3049,4.60107,2470.74,2023-10-07T12:13:18Z
2023-10-07T10:13:58Z,42.805,6.029,13.3046,4.60109,2470.777,2023-10-07T12:16:22Z
2023-10-07T10:17:01Z,42.805,6.029,13.3049,4.60110,2470.754,2023-10-07T12:19:25Z
2023-10-07T10:20:04Z,42.805,6.029,13.3051,4.60112,2470.763,2023-10-07T12:22:28Z
2023-10-07T10:23:07Z,42.805,6.029,13.3044,4.60119,2470.8,2023-10-07T12:25:31Z
2023-10-07T10:26:10Z,42.805,6.029,13.3049,4.60112,2470.81,2023-10-07T12:28:34Z
2023-10-07T10:29:13Z,42.805,6.029,13.3037,4.60117,2470.8,2023-10-07T12:31:37Z
2023-10-07T10:32:16Z,42.805,6.029,13.3048,4.60111,2470.777,2023-10-07T12:34:40Z
2023-10-07T10:35:19Z,42.805,6.029,13.3050,4.60109,2470.763,2023-10-07T12:37:43Z
2023-10-07T10:38:22Z,42.805,6.029,13.3042,4.60112,2470.754,2023-10-07T12:40:46Z
2023-10-07T10:41:25Z,42.805,6.029,13.3046,4.60111,2470.754,2023-10-07T12:43:49Z
2023-10-07T10:44:28Z,42.805,6.029,13.3038,4.60112,2470.787,2023-10-07T12:46:52Z
2023-10-07T10:47:31Z,42.805,6.029,13.3044,4.60108,2470.787,2023-10-07T12:49:55Z
2023-10-07T10:50:34Z,42.805,6.029,13.3043,4.60116,2470.81,2023-10-07T12:52:58Z
2023-10-07T10:53:37Z,42.805,6.029,13.3043,4.60111,2470.763,2023-10-07T12:56:01Z
2023-10-07T10:56:41Z,42.805,6.029,13.3045,4.60107,2470.8,2023-10-07T12:59:04Z
2023-10-07T10:59:44Z,42.805,6.029,13.3051,4.60114,2470.777,2023-10-07T13:02:07Z
2023-10-07T11:02:47Z,42.805,6.029,13.3048,4.60114,2470.81,2023-10-07T13:05:11Z
2023-10-07T11:05:50Z,42.805,6.029,13.3051,4.60112,2470.787,2023-10-07T13:08:14Z
2023-10-07T11:08:53Z,42.805,6.029,13.3047,4.60110,2470.787,2023-10-07T13:11:17Z
2023-10-07T11:11:56Z,42.805,6.029,13.3048,4.60112,2470.787,2023-10-07T13:14:20Z
2023-10-07T11:14:59Z,42.805,6.029,13.3050,4.60117,2470.787,2023-10-07T13:17:23Z
2023-10-07T11:18:02Z,42.805,6.029,13.3052,4.60112,2470.773,2023-10-07T13:20:26Z
2023-10-07T11:21:05Z,42.805,6.029,13.3053,4.60111,2470.81,2023-10-07T13:23:29Z
2023-10-07T11:24:08Z,42.805,6.029,13.3046,4.60111,2470.8,2023-10-07T13:26:32Z
2023-10-07T11:27:11Z,42.805,6.029,13.3050,4.60112,2470.787,2023-10-07T13:29:35Z
2023-10-07T11:30:14Z,42.805,6.029,13.3046,4.60122,2470.763,2023-10-07T13:32:38Z
2023-10-07T11:33:17Z,42.805,6.029,13.3047,4.60114,2470.8,2023-10-07T13:35:41Z
2023-10-07T11:36:21Z,42.805,6.029,13.3051,4.60115,2470.787,2023-10-07T13:38:44Z
2023-10-07T11:39:24Z,42.805,6.029,13.3042,4.60110,2470.773,2023-10-07T13:41:47Z
2023-10-07T11:42:27Z,42.805,6.029,13.3050,4.60109,2470.824,2023-10-07T13:44:51Z
2023-10-07T11:45:30Z,42.805,6.029,13.3048,4.60110,2470.787,2023-10-07T13:47:54Z
2023-10-07T11:48:33Z,42.805,6.029,13.3037,4.60114,2470.787,2023-10-07T13:50:57Z
2023-10-07T11:51:36Z,42.805,6.029,13.3043,4.60110,2470.824,2023-10-07T13:54:00Z
2023-10-07T11:54:39Z,42.805,6.029,13.3042,4.60112,2470.824,2023-10-07T13:57:03Z
2023-10-07T11:57:42Z,42.805,6.029,13.3046,4.60111,2470.8,2023-10-07T14:00:06Z
2023-10-07T12:00:45Z,42.805,6.029,13.3039,4.60110,2470.824,2023-10-07T14:03:09Z
2023-10-07T12:03:48Z,42.805,6.029,13.3046,4.60102,2470.787,2023-10-07T14:06:12Z
2023-10-07T12:06:51Z,42.805,6.029,13.3041,4.60108,2470.8,2023-10-07T14:09:15Z
2023-10-07T12:09:54Z,42.805,6.029,13.3041,4.60109,2470.81,2023-10-07T14:12:18Z
2023-10-07T12:12:58Z,42.805,6.029,13.3039,4.60111,2470.833,2023-10-07T14:15:21Z
2023-10-07T12:16:01Z,42.805,6.029,13.3040,4.60102,2470.81,2023-10-07T14:18:24Z
2023-10-07T12:19:04Z,42.805,6.029,13.3041,4.60104,2470.763,2023-10-07T14:21:28Z
2023-10-07T12:22:07Z,42.805,6.029,13.3043,4.60108,2470.81,2023-10-07T14:24:31Z
2023-10-07T12:25:10Z,42.805,6.029,13.3041,4.60111,2470.787,2023-10-07T14:27:34Z
2023-10-07T12:28:13Z,42.805,6.029,13.3041,4.60107,2470.833,2023-10-07T14:30:37Z
2023-10-07T12:31:15Z,42.805,6.029,13.3041,4.60106,2470.847,2023-10-07T14:33:39Z
2023-10-07T12:34:18Z,42.805,6.029,13.3041,4.60103,2470.81,2023-10-07T14:36:42Z
2023-10-07T12:37:21Z,42.805,6.029,13.3044,4.60108,2470.824,2023-10-07T14:39:45Z
2023-10-07T12:40:24Z,42.805,6.029,13.3044,4.60112,2470.81,2023-10-07T14:42:48Z
2023-10-07T12:43:27Z,42.805,6.029,13.3040,4.60109,2470.824,2023-10-07T14:45:51Z
2023-10-07T12:46:30Z,42.805,6.029,13.3039,4.60102,2470.787,2023-10-07T14:48:54Z
2023-10-07T12:49:34Z,42.805,6.029,13.3041,4.60111,2470.833,2023-10-07T14:51:57Z
2023-10-07T12:52:37Z,42.805,6.029,13.3040,4.60109,2470.81,2023-10-07T14:55:00Z
2023-10-07T12:55:40Z,42.805,6.029,13.3041,4.60106,2470.81,2023-10-07T14:58:04Z
2023-10-07T12:58:43Z,42.805,6.029,13.3044,4.60101,2470.81,2023-10-07T15:01:07Z
2023-10-07T13:01:46Z,42.805,6.029,13.3039,4.60108,2470.81,2023-10-07T15:04:10Z
2023-10-07T13:04:49Z,42.805,6.029,13.3044,4.60101,2470.81,2023-10-07T15:07:13Z
2023-10-07T13:07:52Z,42.805,6.029,13.3044,4.60112,2470.81,2023-10-07T15:10:16Z
2023-10-07T13:10:55Z,42.805,6.029,13.3035,4.60104,2470.81,2023-10-07T15:13:19Z
2023-10-07T13:13:58Z,42.805,6.029,13.3039,4.60107,2470.833,2023-10-07T15:16:22Z
2023-10-07T13:17:01Z,42.805,6.029,13.3044,4.60105,2470.833,2023-10-07T15:19:25Z
2023-10-07T13:20:04Z,42.805,6.029,13.3042,4.60105,2470.871,2023-10-07T15:22:28Z
2023-10-07T13:23:07Z,42.805,6.029,13.3042,4.60107,2470.833,2023-10-07T15:25:31Z
2023-10-07T13:26:11Z,42.805,6.029,13.3043,4.60108,2470.81,2023-10-07T15:28:34Z
2023-10-07T13:29:14Z,42.805,6.029,13.3039,4.60110,2470.847,2023-10-07T15:31:37Z
2023-10-07T13:32:17Z,42.805,6.029,13.3039,4.60107,2470.81,2023-10-07T15:34:41Z
2023-10-07T13:35:20Z,42.805,6.029,13.3038,4.60109,2470.81,2023-10-07T15:37:44Z
2023-10-07T13:38:23Z,42.805,6.029,13.3039,4.60109,2470.833,2023-10-07T15:40:47Z
2023-10-07T13:41:26Z,42.805,6.029,13.3041,4.60108,2470.787,2023-10-07T15:43:50Z
2023-10-07T13:44:29Z,42.805,6.029,13.3040,4.60103,2470.81,2023-10-07T15:46:53Z
2023-10-07T13:47:32Z,42.805,6.029,13.3041,4.60111,2470.81,2023-10-07T15:49:56Z
2023-10-07T13:50:35Z,42.805,6.029,13.3043,4.60107,2470.833,2023-10-07T15:52:59Z
2023-10-07T13:53:38Z,42.805,6.029,13.3044,4.60110,2470.833,2023-10-07T15:56:02Z
2023-10-07T13:56:41Z,42.805,6.029,13.3046,4.60107,2470.81,2023-10-07T15:59:05Z
2023-10-07T13:59:44Z,42.805,6.029,13.3046,4.60115,2470.81,2023-10-07T16:02:08Z
2023-10-07T14:02:47Z,42.805,6.029,13.3045,4.60110,2470.833,2023-10-07T16:05:11Z
2023-10-07T14:05:51Z,42.805,6.029,13.3048,4.60102,2470.787,2023-10-07T16:08:14Z
2023-10-07T14:08:54Z,42.805,6.029,13.3043,4.60108,2470.81,2023-10-07T16:11:17Z
2023-10-07T14:11:57Z,42.805,6.029,13.3041,4.60105,2470.81,2023-10-07T16:14:21Z
2023-10-07T14:15:00Z,42.805,6.029,13.3044,4.60103,2470.824,2023-10-07T16:17:24Z
2023-10-07T14:18:03Z,42.805,6.029,13.3043,4.60110,2470.833,2023-10-07T16:20:27Z
2023-10-07T14:21:06Z,42.805,6.029,13.3043,4.60113,2470.81,2023-10-07T16:23:30Z
2023-10-07T14:24:09Z,42.805,6.029,13.3043,4.60112,2470.787,2023-10-07T16:26:33Z
2023-10-07T14:27:12Z,42.805,6.029,13.3048,4.60110,2470.787,2023-10-07T16:29:36Z
2023-10-07T14:30:14Z,42.805,6.029,13.3041,4.60109,2470.857,2023-10-07T16:32:38Z
2023-10-07T14:33:17Z,42.805,6.029,13.3043,4.60109,2470.833,2023-10-07T16:35:41Z
2023-10-07T14:36:20Z,42.805,6.029,13.3043,4.60112,2470.833,2023-10-07T16:38:44Z
2023-10-07T14:39:23Z,42.805,6.029,13.3042,4.60110,2470.833,2023-10-07T16:41:47Z
2023-10-07T14:42:27Z,42.805,6.029,13.3046,4.60105,2470.824,2023-10-07T16:44:50Z
2023-10-07T14:45:30Z,42.805,6.029,13.3041,4.60114,2470.847,2023-10-07T16:47:53Z
2023-10-07T14:48:33Z,42.805,6.029,13.3041,4.60106,2470.81,2023-10-07T16:50:57Z
2023-10-07T14:51:36Z,42.805,6.029,13.3042,4.60113,2470.833,2023-10-07T16:54:00Z
2023-10-07T14:54:39Z,42.805,6.029,13.3043,4.60110,2470.833,2023-10-07T16:57:03Z
2023-10-07T14:57:42Z,42.805,6.029,13.3049,4.60114,2470.81,2023-10-07T17:00:06Z
2023-10-07T15:00:45Z,42.805,6.029,13.3046,4.60109,2470.787,2023-10-07T17:03:09Z